User: anonymous   Login
Location: Unspecified
(0.0000°N, 0.0000°E)
Time: 18:37:38
(UTC+00:00)
Language:

AO-40 - Orbit

View from above orbital plane
View from above orbital plane
View from above satellite
View from above satellite

Ground track
Ground track

The orbit data is extracted from the following two-line orbital elements,

1 26609U 00072B   20215.35969043 -.00000370 +00000-0 +00000-0 0  9992
2 26609 009.2364 013.4365 7942725 162.9617 261.6620 01.25587009090570
Epoch (UTC): 02 August 2020 08:37:57
Eccentricity: 0.7942725
inclination: 9.2364°
perigee height: 1087 km
apogee height: 58733 km
right ascension of ascending node: 13.4365°
argument of perigee: 162.9617°
revolutions per day: 1.25587009
mean anomaly at epoch: 261.6620°
orbit number at epoch: 9057

The dashed part of the orbit path shows where the satellite is in the earth's shadow,  

DLR